This is the latest recevied weather packets stored in our database for station/object KF0JJO. If no packets are shown the sender has not sent any weather packets the latest 10 day(s).
| Time | Temp. | Humidity | Pressure | Rain* | Wind** | Luminosity | Snow |
|---|---|---|---|---|---|---|---|
| 1777853691 | 20.56° C | 23% | 1035.5 hPa | 0 mm | - | 60 W/m² | - |
| 1777853387 | 20.56° C | 23% | 1035.4 hPa | 0 mm | - | 59 W/m² | - |
| 1777853085 | 20.56° C | 23% | 1035.5 hPa | 0 mm | - | 57 W/m² | - |
| 1777852782 | 21.11° C | 22% | 1035.3 hPa | 0 mm | - | 58 W/m² | - |
| 1777852480 | 21.11° C | 22% | 1035.7 hPa | 0 mm | - | 117 W/m² | - |
| 1777852177 | 21.11° C | 23% | 1035.6 hPa | 0 mm | - | 60 W/m² | - |
| 1777851874 | 21.11° C | 23% | 1035.6 hPa | 0 mm | - | 51 W/m² | - |
| 1777851572 | 21.67° C | 21% | 1035.7 hPa | 0 mm | - | 76 W/m² | - |
| 1777851268 | 21.67° C | 23% | 1035.4 hPa | 0 mm | - | 66 W/m² | - |
| 1777850965 | 21.67° C | 23% | 1035.7 hPa | 0 mm | - | 180 W/m² | - |
| 1777850662 | 21.67° C | 21% | 1035.6 hPa | 0 mm | - | 122 W/m² | - |
| 1777850360 | 21.67° C | 21% | 1035.8 hPa | 0 mm | - | 118 W/m² | - |
| 1777850057 | 21.67° C | 24% | 1036 hPa | 0 mm | - | 102 W/m² | - |
| 1777849753 | 21.67° C | 22% | 1036 hPa | 0 mm | - | 112 W/m² | - |
| 1777849450 | 22.22° C | 21% | 1035.9 hPa | 0 mm | - | 116 W/m² | - |
| 1777849148 | 22.22° C | 19% | 1036 hPa | 0 mm | - | 168 W/m² | - |
| 1777848843 | 22.78° C | 21% | 1036 hPa | 0 mm | - | 305 W/m² | - |
| 1777848540 | 22.78° C | 19% | 1036 hPa | 0 mm | - | 365 W/m² | - |
| 1777848237 | 22.78° C | 21% | 1036 hPa | 0 mm | - | 383 W/m² | - |
| 1777847935 | 22.78° C | 19% | 1036.3 hPa | 0 mm | - | 402 W/m² | - |
| 1777847633 | 22.78° C | 20% | 1036.2 hPa | 0 mm | - | 420 W/m² | - |
| 1777847328 | 22.78° C | 19% | 1036.2 hPa | 0 mm | - | 435 W/m² | - |
| 1777847027 | 22.78° C | 19% | 1036 hPa | 0 mm | - | 452 W/m² | - |
| 1777846724 | 22.78° C | 20% | 1036.2 hPa | 0 mm | - | 470 W/m² | - |
| 1777846423 | 22.22° C | 21% | 1036 hPa | 0 mm | - | 499 W/m² | - |
* Rain latest hour (hover to see other rain measurements)
** Current wind speed in m/s (hover to see current wind gust speed)